Regional Weather Roundup
Issued by NWS

Home | Current Version | Previous Version | Text Only | Print | Product List | Glossary Off
Versions: 1 2 3 4 5 6 7 8 9 10 11 12 13 14 15 16 17 18 19 20 21 22 23 24 25 26 27 28 29 30 31 32 33 34 35 36 37 38 39 40 41 42 43 44 45 46 47 48 49 50

000
ASUS45 KABQ 270710
RWRNM
WEATHER ROUNDUP FOR NEW MEXICO
NATIONAL WEATHER SERVICE ALBUQUERQUE NM
100 AM MDT WED AUG 27 2014

NOTE: "FAIR" MEANS FEW OR NO CLOUDS BELOW 12,000 FEET AGL WITH NO
       SIGNIFICANT WEATHER OR OBSTRUCTIONS TO VISION.

      THIS PRODUCT IS RELEASED AS TWO VERSIONS.  ONE VERSION NEAR
      THE TOP OF THE HOUR CONTAINING PRELIMINARY DATA FROM ALBUQUERQUE
      AND OTHER STATIONS.  A FINAL VERSION WITH ADDITIONAL DATA IS
      ISSUED ABOUT 10 MINUTES AFTER THE HOUR.

NMZ501-503-504-510>518-270800-
NORTHWEST PLATEAU/NORTHCENTRAL MOUNTAINS

CITY           SKY/WX    TMP DP  RH WIND       PRES   REMARKS
FARMINGTON     CLEAR     57  54  89 SE8       30.26S
LOS ALAMOS     LGT RAIN  56  56  99 S8        30.36F
SANTA FE       CLOUDY    59  57  93 W8        30.31R
TAOS           CLOUDY    55  52  88 CALM      30.37S
ANGEL FIRE     CLOUDY    51  49  93 CALM      30.43S

$$
NMZ402-403-502-505>509-270800-
WESTCENTRAL MOUNTAINS/SOUTHWEST MOUNTAINS

CITY           SKY/WX    TMP DP  RH WIND       PRES   REMARKS
GALLUP         MOCLDY    55  52  89 CALM      30.33S
SILVER CITY    CLOUDY    68  57  68 W3        30.28F

$$
NMZ407-409-411-412-270800-
SOUTHERN DESERTS

CITY           SKY/WX    TMP DP  RH WIND       PRES   REMARKS
LORDSBURG      PTSUNNY   66  63  88 SE6       30.20S
DEMING         MOCLDY    69  62  78 SW6       30.21S
LAS CRUCES     CLOUDY    70  63  78 SW12      30.22F
HOLLOMAN AFB   CLOUDY    69  67  94 E2        30.17R
ALAMOGORDO     CLOUDY    66  64  94 E3        30.19S
T OR C         CLOUDY    71  60  68 W7        30.21F

$$
NMZ519>523-270800-
CENTRAL VALLEYS/CENTRAL HIGHLANDS

CITY           SKY/WX    TMP DP  RH WIND       PRES   REMARKS
ALBUQUERQUE    TSTM      63  56  78 N8        30.28R
DOUBLE EAGLE   CLOUDY    59  55  87 W14       30.31R
MORIARTY ARPT  RAIN      59  57  91 CALM      30.30F
CLINES CORNERS CLOUDY    58  54  86 W3        30.33S
BELEN          CLOUDY    62  59  90 NW15G22   30.28R
SOCORRO        TSTM      60  59  95 CALM      30.25S

$$
NMZ524>526-539-540-270800-
SOUTHCENTRAL MOUNTAINS

CITY           SKY/WX    TMP DP  RH WIND       PRES   REMARKS
RUIDOSO        CLOUDY    59  54  82 S8        30.35F

$$
NMZ527>531-270800-
NORTHEAST HIGHLANDS/NORTHEAST PLAINS

CITY           SKY/WX    TMP DP  RH WIND       PRES   REMARKS
LAS VEGAS      MOCLDY    56  55  97 S5        30.33F
RATON          CLOUDY    59  57  93 W5        30.29F
CLAYTON        CLOUDY    63  61  93 E6        30.23F FOG

$$
NMZ532>537-270800-
EASTCENTRAL PLAINS

CITY           SKY/WX    TMP DP  RH WIND       PRES   REMARKS
TUCUMCARI        N/A     69  64  84 E8        30.18R
CANNON AFB     MOCLDY    68  63  83 S2        30.20R
CLOVIS AIRPORT   N/A     68  61  77 E7        30.22S

$$
NMZ028-029-538-270800-
SOUTHEAST PLAINS

CITY           SKY/WX    TMP DP  RH WIND       PRES   REMARKS
ROSWELL        CLOUDY    72  65  78 CALM      30.13F
CARLSBAD       MOCLDY    72  66  81 NE3       30.12R
HOBBS          CLOUDY    73  63  68 N8        30.15F


$$



USA.gov is the U.S. government's official web portal to all federal, state and local government web resources and services.